User: anonymous   Login
Location: Unspecified
(0.0000°N, 0.0000°E)
Time: 15:11:46
(UTC+00:00)
Language:

Tiros 1 - Orbit

View from above orbital plane
View from above orbital plane
View from above satellite
View from above satellite

Ground track
Ground track

The orbit data is extracted from the following two-line orbital elements,

1 00029U 60002B   16040.80492070  .00000142  00000-0  52406-4 0  9998
2 00029  48.3788 249.0489 0024600 273.0140  86.7956 14.74001270984116
Epoch (UTC): 09 February 2016 19:19:05
Eccentricity: 0.0024600
inclination: 48.3788°
perigee height: 631 km
apogee height: 665 km
right ascension of ascending node: 249.0489°
argument of perigee: 273.0140°
revolutions per day: 14.74001270
mean anomaly at epoch: 86.7956°
orbit number at epoch: 98411

The dashed part of the orbit path shows where the satellite is in the earth's shadow,  

DLR